Time,TemperatureF,DewpointF,PressureIn,WindDirection,WindDirectionDegrees,WindSpeedMPH,WindSpeedGustMPH,Humidity,HourlyPrecipIn,Conditions,Clouds,dailyrainin,SoftwareType,DateUTC
2013-04-01 00:02:00,30.0,21.0,-100.00,North,357,6.0,16.0,69,0.00,,,0.00,,2013-04-01 05:02:00,
2013-04-01 00:12:00,30.0,21.0,-100.00,North,357,6.0,16.0,69,0.00,,,0.00,,2013-04-01 05:12:00,
2013-04-01 00:22:00,30.0,21.0,-100.00,North,357,6.0,16.0,69,0.00,,,0.00,,2013-04-01 05:22:00,
2013-04-01 00:53:00,30.0,19.0,-100.00,North,357,10.0,19.0,62,0.00,,,0.00,,2013-04-01 05:53:00,
2013-04-01 01:02:00,30.0,19.0,-100.00,North,357,10.0,19.0,62,0.00,,,0.00,,2013-04-01 06:02:00,
2013-04-01 01:12:00,30.0,19.0,-100.00,North,357,10.0,19.0,62,0.00,,,0.00,,2013-04-01 06:12:00,
2013-04-01 01:22:00,30.0,19.0,-100.00,North,357,10.0,19.0,62,0.00,,,0.00,,2013-04-01 06:22:00,
2013-04-01 01:53:00,29.0,18.0,-100.00,North,354,12.0,24.0,62,0.00,,,0.00,,2013-04-01 06:53:00,
2013-04-01 02:02:00,29.0,18.0,-100.00,North,354,12.0,24.0,62,0.00,,,0.00,,2013-04-01 07:02:00,
2013-04-01 02:12:00,29.0,18.0,-100.00,North,354,12.0,24.0,62,0.00,,,0.00,,2013-04-01 07:12:00,
2013-04-01 02:22:00,29.0,18.0,-100.00,North,354,12.0,24.0,62,0.00,,,0.00,,2013-04-01 07:22:00,
2013-04-01 02:53:00,28.0,18.0,-100.00,NNW,342,10.0,23.0,66,0.00,,,0.00,,2013-04-01 07:53:00,
2013-04-01 03:03:00,28.0,18.0,-100.00,NNW,342,10.0,23.0,66,0.00,,,0.00,,2013-04-01 08:03:00,
2013-04-01 03:12:00,28.0,18.0,-100.00,NNW,342,10.0,23.0,66,0.00,,,0.00,,2013-04-01 08:12:00,
2013-04-01 03:22:00,28.0,18.0,-100.00,NNW,342,10.0,23.0,66,0.00,,,0.00,,2013-04-01 08:22:00,
2013-04-01 03:53:00,28.0,17.0,-100.00,North,358,10.0,15.0,63,0.00,,,0.00,,2013-04-01 08:53:00,
2013-04-01 04:02:00,28.0,17.0,-100.00,North,358,10.0,15.0,63,0.00,,,0.00,,2013-04-01 09:02:00,
2013-04-01 04:12:00,28.0,17.0,-100.00,North,358,10.0,15.0,63,0.00,,,0.00,,2013-04-01 09:12:00,
2013-04-01 04:22:00,28.0,17.0,-100.00,North,358,10.0,15.0,63,0.00,,,0.00,,2013-04-01 09:22:00,
2013-04-01 04:53:00,26.0,15.0,-100.00,North,0,11.0,21.0,63,0.00,,,0.00,,2013-04-01 09:53:00,
2013-04-01 05:03:00,26.0,15.0,-100.00,North,0,11.0,21.0,63,0.00,,,0.00,,2013-04-01 10:03:00,
2013-04-01 05:12:00,26.0,15.0,-100.00,North,0,11.0,21.0,63,0.00,,,0.00,,2013-04-01 10:12:00,
2013-04-01 05:23:00,26.0,15.0,-100.00,North,0,11.0,21.0,63,0.00,,,0.00,,2013-04-01 10:23:00,
2013-04-01 05:53:00,25.0,15.0,-100.00,North,355,10.0,16.0,66,0.00,,,0.00,,2013-04-01 10:53:00,
2013-04-01 06:03:00,25.0,15.0,-100.00,North,355,10.0,16.0,66,0.00,,,0.00,,2013-04-01 11:03:00,
2013-04-01 06:13:00,25.0,15.0,-100.00,North,355,10.0,16.0,66,0.00,,,0.00,,2013-04-01 11:13:00,
2013-04-01 06:23:00,25.0,15.0,-100.00,North,355,10.0,16.0,66,0.00,,,0.00,,2013-04-01 11:23:00,
2013-04-01 06:53:00,24.0,13.0,-100.00,North,350,9.0,20.0,63,0.00,,,0.00,,2013-04-01 11:53:00,
2013-04-01 07:02:00,24.0,13.0,-100.00,North,350,9.0,20.0,63,0.00,,,0.00,,2013-04-01 12:02:00,
2013-04-01 07:12:00,24.0,13.0,-100.00,North,350,9.0,20.0,63,0.00,,,0.00,,2013-04-01 12:12:00,
2013-04-01 07:23:00,24.0,13.0,-100.00,North,350,9.0,20.0,63,0.00,,,0.00,,2013-04-01 12:23:00,
2013-04-01 07:53:00,26.0,14.0,-100.00,NNW,330,8.0,15.0,60,0.00,,,0.00,,2013-04-01 12:53:00,
2013-04-01 08:03:00,26.0,14.0,-100.00,NNW,330,8.0,15.0,60,0.00,,,0.00,,2013-04-01 13:03:00,
2013-04-01 08:12:00,26.0,14.0,-100.00,NNW,330,8.0,15.0,60,0.00,,,0.00,,2013-04-01 13:12:00,
2013-04-01 08:22:00,26.0,14.0,-100.00,NNW,330,8.0,15.0,60,0.00,,,0.00,,2013-04-01 13:22:00,
2013-04-01 08:53:00,27.0,12.0,-100.00,NW,326,11.0,18.0,53,0.00,,,0.00,,2013-04-01 13:53:00,
2013-04-01 09:04:00,27.0,12.0,-100.00,NW,326,11.0,18.0,53,0.00,,,0.00,,2013-04-01 14:04:00,
2013-04-01 09:12:00,27.0,12.0,-100.00,NW,326,11.0,18.0,53,0.00,,,0.00,,2013-04-01 14:12:00,
2013-04-01 09:22:00,27.0,12.0,-100.00,NW,326,11.0,18.0,53,0.00,,,0.00,,2013-04-01 14:22:00,
2013-04-01 09:53:00,27.0,9.0,-100.00,NNW,334,13.0,22.0,47,0.00,,,0.00,,2013-04-01 14:53:00,
2013-04-01 10:03:00,27.0,9.0,-100.00,NNW,334,13.0,22.0,47,0.00,,,0.00,,2013-04-01 15:03:00,
2013-04-01 10:13:00,27.0,9.0,-100.00,NNW,334,13.0,22.0,47,0.00,,,0.00,,2013-04-01 15:13:00,
2013-04-01 10:22:00,27.0,9.0,-100.00,NNW,334,13.0,22.0,47,0.00,,,0.00,,2013-04-01 15:22:00,
2013-04-01 10:54:00,29.0,11.0,-100.00,NW,317,13.0,21.0,46,0.00,,,0.00,,2013-04-01 15:54:00,
2013-04-01 11:03:00,29.0,11.0,-100.00,NW,317,13.0,21.0,46,0.00,,,0.00,,2013-04-01 16:03:00,
2013-04-01 11:13:00,29.0,11.0,-100.00,NW,317,13.0,21.0,46,0.00,,,0.00,,2013-04-01 16:13:00,
2013-04-01 11:23:00,29.0,11.0,-100.00,NW,317,13.0,21.0,46,0.00,,,0.00,,2013-04-01 16:23:00,
2013-04-01 12:53:00,31.0,12.0,-100.00,WNW,299,16.0,23.0,44,-99.99,,,0.00,,2013-04-01 17:53:00,
2013-04-01 13:03:00,31.0,12.0,-100.00,WNW,299,16.0,23.0,44,-99.99,,,0.00,,2013-04-01 18:03:00,
2013-04-01 13:12:00,31.0,12.0,-100.00,WNW,299,16.0,23.0,44,-99.99,,,0.00,,2013-04-01 18:12:00,
2013-04-01 13:22:00,31.0,12.0,-100.00,WNW,299,16.0,23.0,44,-99.99,,,0.00,,2013-04-01 18:22:00,
2013-04-01 13:53:00,33.0,13.0,-100.00,WNW,298,14.0,22.0,44,0.00,,,0.00,,2013-04-01 18:53:00,
2013-04-01 14:03:00,33.0,13.0,-100.00,WNW,298,14.0,22.0,44,0.00,,,0.00,,2013-04-01 19:03:00,
2013-04-01 14:12:00,33.0,13.0,-100.00,WNW,298,14.0,22.0,44,0.00,,,0.00,,2013-04-01 19:12:00,
2013-04-01 14:23:00,33.0,13.0,-100.00,WNW,298,14.0,22.0,44,0.00,,,0.00,,2013-04-01 19:23:00,
2013-04-01 14:53:00,34.0,13.0,-100.00,WNW,301,15.0,23.0,42,0.00,,,0.00,,2013-04-01 19:53:00,
2013-04-01 15:02:00,34.0,13.0,-100.00,WNW,301,15.0,23.0,42,0.00,,,0.00,,2013-04-01 20:02:00,
2013-04-01 15:13:00,34.0,13.0,-100.00,WNW,301,15.0,23.0,42,0.00,,,0.00,,2013-04-01 20:13:00,
2013-04-01 15:22:00,34.0,13.0,-100.00,WNW,301,15.0,23.0,42,0.00,,,0.00,,2013-04-01 20:22:00,
2013-04-01 15:52:00,34.0,13.0,-100.00,NW,305,15.0,23.0,41,0.00,,,0.00,,2013-04-01 20:52:00,
2013-04-01 16:02:00,34.0,13.0,-100.00,NW,305,15.0,23.0,41,0.00,,,0.00,,2013-04-01 21:02:00,
2013-04-01 16:12:00,34.0,13.0,-100.00,NW,305,15.0,23.0,41,0.00,,,0.00,,2013-04-01 21:12:00,
2013-04-01 16:23:00,34.0,13.0,-100.00,NW,305,15.0,23.0,41,0.00,,,0.00,,2013-04-01 21:23:00,
2013-04-01 16:53:00,35.0,11.0,-100.00,WNW,296,17.0,27.0,37,0.00,,,0.00,,2013-04-01 21:53:00,
2013-04-01 17:02:00,35.0,11.0,-100.00,WNW,296,17.0,27.0,37,0.00,,,0.00,,2013-04-01 22:02:00,
2013-04-01 17:12:00,35.0,11.0,-100.00,WNW,296,17.0,27.0,37,0.00,,,0.00,,2013-04-01 22:12:00,
2013-04-01 17:22:00,35.0,11.0,-100.00,WNW,296,17.0,27.0,37,0.00,,,0.00,,2013-04-01 22:22:00,
2013-04-01 17:52:00,34.0,11.0,-100.00,NW,308,15.0,25.0,38,0.00,,,0.00,,2013-04-01 22:52:00,
2013-04-01 18:02:00,34.0,11.0,-100.00,NW,308,15.0,25.0,38,0.00,,,0.00,,2013-04-01 23:02:00,
2013-04-01 18:12:00,34.0,11.0,-100.00,NW,308,15.0,25.0,38,0.00,,,0.00,,2013-04-01 23:12:00,
2013-04-01 18:23:00,34.0,11.0,-100.00,NW,308,15.0,25.0,38,0.00,,,0.00,,2013-04-01 23:23:00,
2013-04-01 18:53:00,33.0,11.0,-100.00,NNW,336,14.0,24.0,39,0.00,,,0.00,,2013-04-01 23:53:00,
2013-04-01 19:03:00,33.0,11.0,-100.00,NNW,336,14.0,24.0,39,0.00,,,0.00,,2013-04-02 00:03:00,
2013-04-01 19:12:00,33.0,11.0,-100.00,NNW,336,14.0,24.0,39,0.00,,,0.00,,2013-04-02 00:12:00,
2013-04-01 19:22:00,33.0,11.0,-100.00,NNW,336,14.0,24.0,39,0.00,,,0.00,,2013-04-02 00:22:00,
2013-04-01 19:53:00,30.0,11.0,-100.00,NNW,339,12.0,21.0,45,0.00,,,0.00,,2013-04-02 00:53:00,
2013-04-01 20:02:00,30.0,11.0,-100.00,NNW,339,12.0,21.0,45,0.00,,,0.00,,2013-04-02 01:02:00,
2013-04-01 20:12:00,30.0,11.0,-100.00,NNW,339,12.0,21.0,45,0.00,,,0.00,,2013-04-02 01:12:00,
2013-04-01 20:22:00,30.0,11.0,-100.00,NNW,339,12.0,21.0,45,0.00,,,0.00,,2013-04-02 01:22:00,
2013-04-01 20:53:00,29.0,12.0,-100.00,NNW,336,9.0,17.0,49,0.00,,,0.00,,2013-04-02 01:53:00,
2013-04-01 21:03:00,29.0,12.0,-100.00,NNW,336,9.0,17.0,49,0.00,,,0.00,,2013-04-02 02:03:00,
2013-04-01 21:12:00,29.0,12.0,-100.00,NNW,336,9.0,17.0,49,0.00,,,0.00,,2013-04-02 02:12:00,
2013-04-01 21:22:00,29.0,12.0,-100.00,NNW,336,9.0,17.0,49,0.00,,,0.00,,2013-04-02 02:22:00,
2013-04-01 21:53:00,28.0,16.0,-100.00,NW,310,8.0,13.0,59,0.00,,,0.00,,2013-04-02 02:53:00,
2013-04-01 22:02:00,28.0,16.0,-100.00,NW,310,8.0,13.0,59,0.00,,,0.00,,2013-04-02 03:02:00,
2013-04-01 22:12:00,28.0,16.0,-100.00,NW,310,8.0,13.0,59,0.00,,,0.00,,2013-04-02 03:12:00,
2013-04-01 22:22:00,28.0,16.0,-100.00,NW,310,8.0,13.0,59,0.00,,,0.00,,2013-04-02 03:22:00,
2013-04-01 22:53:00,28.0,15.0,-100.00,WNW,303,10.0,15.0,58,0.00,,,0.00,,2013-04-02 03:53:00,
2013-04-01 23:03:00,28.0,15.0,-100.00,WNW,303,10.0,15.0,58,0.00,,,0.00,,2013-04-02 04:03:00,
2013-04-01 23:13:00,28.0,15.0,-100.00,WNW,303,10.0,15.0,58,0.00,,,0.00,,2013-04-02 04:13:00,
2013-04-01 23:23:00,28.0,15.0,-100.00,WNW,303,10.0,15.0,58,0.00,,,0.00,,2013-04-02 04:23:00,
2013-04-01 23:53:00,27.0,14.0,-100.00,WNW,301,11.0,18.0,58,0.00,,,0.00,,2013-04-02 04:53:00,